Weather History for Branson, MO

Change the Weather History Date:

Tuesday, July 10, 2012

  Actual Average (KHRO) Record (KHRO)
Temperature  
Mean Temperature 80 °F 78 °F  
Max Temperature 91 °F 89 °F 103 °F (2011)
Min Temperature 69 °F 68 °F 50 °F (1961)
Degree Days  
Heating Degree Days 0 0  
Month to date heating degree days 0  
Since 1 June heating degree days 6  
Since 1 July heating degree days 0  
Cooling Degree Days 15 13  
Month to date cooling degree days 126  
Year to date cooling degree days 530  
Since 1 June cooling degree days 391  
Growing Degree Days 30 (Base 50)    
Moisture  
Dew Point 68 °F    
Average Humidity 78    
Maximum Humidity 100    
Minimum Humidity 29    
Precipitation  
Precipitation 0.00 in 0.10 in 1.90 in (1925)
Month to date precipitation 1.01  
Year to date precipitation 23.25  
Snow  
Snow 0.00 in 0.00 in - ()
Month to date snowfall 0.0  
Since 1 June snowfall 0.0  
Since 1 July snowfall 0.0  
Snow Depth -    
Sea Level Pressure  
Sea Level Pressure 30.02 in    
Wind  
Wind Speed 2 mph (ESE)    
Max Wind Speed 12 mph    
Max Gust Speed 17 mph    
Visibility 8 miles    
Events      
T = Trace of Precipitation, MM = Missing Value Source: NWS Daily Summary

Daily Weather History Graph

Daily Weather History Graph

Search for Another Location

Airport:

Trip Planner

Search our weather history database for the weather conditions in past years. The results will help you decide how hot, cold, wet, or windy it might be!

Date:

Astronomy

Jul. 10, 2012 Rise Set
Actual Time 6:03 AM CDT 8:32 PM CDT
Civil Twilight 5:33 AM CDT 9:02 PM CDT
Nautical Twilight 4:56 AM CDT 9:39 PM CDT
Astronomical Twilight 4:15 AM CDT 10:20 PM CDT
Moon 12:02 AM CDT (7/10) 1:15 PM CDT (7/10)
Length of Visible Light 15h 29m
Length of Day
14h 29m
Waning Gibbous, 54% of the Moon is Illuminated
Jul 10
Waning Gibbous
Jul 10
Last Quarter
Jul 18
New
Jul 26
First Quarter
Aug 1
Full

Hourly Weather History & Observations

Time (CDT) Temp. Heat Index Dew Point Humidity Pressure Visibility Wind Dir Wind Speed Gust Speed Precip Events Conditions
12:15 AM 73.4 °F - 69.8 °F 88% 30.04 in 10.0 mi Calm Calm - N/A   Scattered Clouds
12:35 AM 73.4 °F - 69.8 °F 88% 30.03 in 10.0 mi Calm Calm - N/A   Mostly Cloudy
12:55 AM 73.4 °F - 69.8 °F 88% 30.03 in 10.0 mi Calm Calm - N/A   Mostly Cloudy
1:15 AM 73.4 °F - 71.6 °F 94% 30.03 in 10.0 mi Calm Calm - N/A   Partly Cloudy
1:35 AM 73.4 °F - 69.8 °F 88% 30.02 in 10.0 mi Calm Calm - N/A   Partly Cloudy
1:55 AM 71.6 °F - 69.8 °F 94% 30.02 in 10.0 mi Calm Calm - N/A   Scattered Clouds
2:15 AM 71.6 °F - 68.0 °F 88% 30.01 in 10.0 mi Calm Calm - N/A   Mostly Cloudy
2:35 AM 71.6 °F - 69.8 °F 94% 30.01 in 9.0 mi Calm Calm - N/A   Scattered Clouds
2:55 AM 71.6 °F - 69.8 °F 94% 30.01 in 8.0 mi Calm Calm - N/A   Partly Cloudy
3:15 AM 69.8 °F - 68.0 °F 94% 30.01 in 7.0 mi Calm Calm - N/A   Partly Cloudy
3:35 AM 71.6 °F - 69.8 °F 94% 30.01 in 7.0 mi Calm Calm - N/A   Clear
3:55 AM 71.6 °F - 69.8 °F 94% 30.02 in 5.0 mi Calm Calm - N/A   Partly Cloudy
4:15 AM 71.6 °F - 69.8 °F 94% 30.02 in 5.0 mi Calm Calm - N/A   Clear
4:35 AM 71.6 °F - 69.8 °F 94% 30.02 in 5.0 mi Calm Calm - N/A   Mostly Cloudy
4:55 AM 71.6 °F - 71.6 °F 100% 30.02 in 5.0 mi Calm Calm - N/A   Overcast
5:15 AM 71.6 °F - 69.8 °F 94% 30.02 in 5.0 mi Calm Calm - N/A   Overcast
5:35 AM 71.6 °F - 69.8 °F 94% 30.02 in 6.0 mi Calm Calm - N/A   Overcast
5:55 AM 69.8 °F - 69.8 °F 100% 30.03 in 4.0 mi Calm Calm - N/A   Mostly Cloudy
6:15 AM 71.6 °F - 71.6 °F 100% 30.03 in 5.0 mi Calm Calm - N/A   Mostly Cloudy
6:35 AM 71.6 °F - 69.8 °F 94% 30.03 in 2.5 mi Calm Calm - N/A   Scattered Clouds
6:50 AM 71.6 °F - 71.6 °F 100% 30.04 in 4.0 mi Calm Calm - N/A   Scattered Clouds
7:45 AM 73.4 °F - 71.6 °F 94% 30.04 in 7.0 mi Calm Calm - N/A   Mostly Cloudy
8:45 AM 77.0 °F - 71.6 °F 83% 30.04 in 9.0 mi North 4.6 mph - N/A   Partly Cloudy
9:45 AM 80.6 °F 83.2 °F 68.0 °F 65% 30.05 in 10.0 mi NE 6.9 mph - N/A   Partly Cloudy
11:51 AM 84.2 °F 86.6 °F 66.2 °F 55% 30.04 in 10.0 mi East 11.5 mph - N/A   Mostly Cloudy
12:45 PM 86.0 °F 87.3 °F 64.4 °F 48% 30.04 in 10.0 mi ENE 9.2 mph - N/A   Mostly Cloudy
1:45 PM 89.6 °F 90.1 °F 62.6 °F 40% 30.01 in 10.0 mi ENE 8.1 mph - N/A   Scattered Clouds
2:46 PM 89.6 °F 88.9 °F 59.0 °F 36% 29.99 in 10.0 mi NE 8.1 mph 16.1 mph N/A   Scattered Clouds
3:46 PM 91.4 °F 89.9 °F 57.2 °F 31% 29.97 in 10.0 mi East 10.4 mph 17.3 mph N/A   Scattered Clouds
4:47 PM 91.4 °F 89.4 °F 55.4 °F 29% 29.97 in 10.0 mi ENE 11.5 mph - N/A   Scattered Clouds
6:45 PM 84.2 °F 86.6 °F 66.2 °F 55% 29.97 in 10.0 mi SE 9.2 mph - N/A   Partly Cloudy
7:47 PM 82.4 °F 85.4 °F 68.0 °F 62% 29.98 in 10.0 mi Calm Calm - N/A   Partly Cloudy
8:45 PM 78.8 °F - 68.0 °F 69% 29.99 in 10.0 mi Calm Calm - N/A   Clear
9:15 PM 77.0 °F - 68.0 °F 74% 29.99 in 10.0 mi SSE 5.8 mph - N/A   Clear
9:35 PM 77.0 °F - 66.2 °F 69% 30.00 in 10.0 mi Calm Calm - N/A   Clear
9:55 PM 77.0 °F - 66.2 °F 69% 30.01 in 10.0 mi SSE 4.6 mph - N/A   Clear
10:15 PM 75.2 °F - 66.2 °F 73% 30.02 in 10.0 mi Calm Calm - N/A   Clear
10:35 PM 75.2 °F - 66.2 °F 73% 30.02 in 10.0 mi SSE 4.6 mph - N/A   Clear
10:55 PM 75.2 °F - 66.2 °F 73% 30.03 in 10.0 mi SE 5.8 mph - N/A   Clear
11:15 PM 75.2 °F - 66.2 °F 73% 30.03 in 10.0 mi SE 6.9 mph - N/A   Clear
11:35 PM 75.2 °F - 66.2 °F 73% 30.03 in 10.0 mi SE 6.9 mph - N/A   Clear
11:55 PM 73.4 °F - 66.2 °F 78% 30.04 in 10.0 mi SE 5.8 mph - N/A   Clear